{"data":{"norad_id":57490,"epoch":"2026-05-25T03:26:32.371872Z","epoch_age_seconds":52726,"freshness":"FRESH","line1":"1 57490U 23111A   26145.14343023  .00000031  00000+0  34925-4 0  9991","line2":"2 57490  98.6841 215.5803 0001436 110.0329 250.1003 14.19934420145599","mean_motion":14.1993442,"eccentricity":0.0001436,"inclination_deg":98.6841,"raan_deg":215.5803,"arg_perigee_deg":110.0329,"mean_anomaly_deg":250.1003,"bstar":3.4925e-5,"rev_number":14559,"period_min":101.413134277,"perigee_km":824.54013376574,"apogee_km":826.60903973345,"semimajor_km":7203.7115867496,"source":"CELESTRAK","updated_at":"2026-05-25T13:38:12.256326Z"}}